Regional Weather Roundup
Issued by NWS Sterling, VA

Home | Current Version | Previous Version | Graphics & Text | Print | Product List | Glossary On
Versions: 1 2 3 4 5 6 7 8 9 10 11 12 13 14 15 16 17 18 19 20 21 22 23 24 25 26 27 28 29 30 31 32 33 34 35 36 37 38 39 40 41 42 43 44 45 46 47 48 49 50
000
ASUS41 KLWX 230410
RWRLWX

REGIONAL WEATHER ROUNDUP
NATIONAL WEATHER SERVICE BALTIMORE MD/WASHINGTON DC
1200 AM EDT WED JUL 23 2014

Note: "FAIR" indicates few or no clouds below 12,000 feet
with no significant weather and/or obstructions to visibility.
 TC=TEMPERATURE CELSIUS

 * =Non NWS site. Station does not report precipitation (e.g. rain,
    snow, etc.), thunder, or fog.

DCZ001-MDZ009-015-VAZ040>042-051-053>054-230500-
WASHINGTON METRO
  /KDAA//-FT BELVOIR

CITY           SKY/WX    TMP DP  RH WIND       PRES   REMARKS
WASHINGTON NAT PTCLDY    78  67  68 S9        30.08F
DULLES         CLEAR     74  69  85 S5        30.07F
ANDREWS AFB    CLEAR     72  67  85 S8        30.08F
QUANTICO       CLEAR     79  71  76 S15       30.09F
COLLEGE PARK*  CLEAR     73  68  83 CALM      30.07F
LEESBURG*      CLEAR     77  72  83 S5        30.08F
MANASSAS*      CLEAR     73  72  94 CALM      30.08S
GAITHERSBURG*  CLEAR     73  66  78 SE6       30.11F

$$

MDZ006>007-011-014-230500-
BALTIMORE METRO

CITY           SKY/WX    TMP DP  RH WIND       PRES   REMARKS
BWI AIRPORT    CLEAR     74  65  73 CALM      30.07F
MD SCIENCE CTR   N/A     77  64  64 MISG      30.08F
MARTIN STATE   CLEAR     77  70  78 S3        30.09S
ANNAPOLIS      CLEAR     76  67  73 S6        30.07F
FORT MEADE*    CLEAR     68  64  88 CALM      30.10F

$$

MDZ012-015-019>023-230500-
MARYLAND EASTERN SHORE

CITY           SKY/WX    TMP DP  RH WIND       PRES   REMARKS
OCEAN CITY     CLEAR     73  70  90 S5        30.09F
SALISBURY      NOT AVBL
BAY BRIDGE AP*   N/A     77  68  73 S5        30.08S
CAMBRIDGE*     CLEAR     72  64  78 CALM      30.09S
EASTON*        CLEAR     74  66  74 CALM      30.12F

$$

MDZ017>025-230500-
SOUTHERN MARYLAND

CITY           SKY/WX    TMP DP  RH WIND       PRES   REMARKS
PATUXENT RIVER CLEAR     73  68  84 S3        30.09F
ST INIGOES     NOT AVBL
LEONARDTOWN*   CLEAR     72  68  88 CALM      30.11F

$$

MDZ003>005-230500-
NORTH CENTRAL MARYLAND

CITY           SKY/WX    TMP DP  RH WIND       PRES   REMARKS
FREDERICK*     CLEAR     73  73 100 S3        30.09F
HAGERSTOWN APT CLEAR     77  70  79 S9        30.06F
WESTMINSTER*   PTCLDY    75  70  83 CALM      30.09F

$$

MDZ501>502-230500-
WESTERN MARYLAND

CITY           SKY/WX    TMP DP  RH WIND       PRES   REMARKS
OAKLAND*       CLEAR     68  68 100 SW5       30.17F
CUMBERLAND*    CLEAR     77  70  78 CALM      30.09F

$$

VAZ025>031-230500-
SHENANDOAH VALLEY

CITY           SKY/WX    TMP DP  RH WIND       PRES   REMARKS
WINCHESTER*    CLEAR     73  70  88 CALM      30.08S
STAUNTON*      CLEAR     71  67  87 SW3       30.13F

$$

WVZ021-048>050-054>055-230500-
EASTERN WEST VIRGINIA PANHANDLE

CITY           SKY/WX    TMP DP  RH WIND       PRES   REMARKS
MARTINSBURG    CLEAR     74  68  81 CALM      30.07F
PETERSBURG*    MOCLDY    73  67  81 CALM      30.09S

$$

VAZ036>039-050-230500-
CENTRAL FOOTHILLS

CITY           SKY/WX    TMP DP  RH WIND       PRES   REMARKS
CHARLOTTESVILL PTCLDY    75  70  84 CALM      30.10S
ORANGE*        CLEAR     72  70  94 CALM      30.11S

$$

VAZ055>057-230500-
NORTH AND CENTRAL PIEDMONT

CITY           SKY/WX    TMP DP  RH WIND       PRES   REMARKS
FREDERICKSBRG* CLEAR     74  70  86 S5        30.08S
STAFFORD*      CLEAR     71  71 100 CALM      30.12F

$$

NCZ024-NYZ072-PAZ021-071-VAZ022-071-230500-
OTHER REGIONAL OBSERVATIONS

CITY           SKY/WX    TMP DP  RH WIND       PRES   REMARKS
NEW YORK CITY  CLEAR     77  63  61 SW7G18    30.08S
PHILADELPHIA   CLEAR     75  59  57 SW7       30.08F
PITTSBURGH     CLEAR     75  69  81 S3        30.04S
ROANOKE        CLEAR     75  68  78 CALM      30.16R
RICHMOND       PTCLDY    75  69  81 CALM      30.10R
RALEIGH        PTCLDY    74  71  91 CALM      30.12R

$$

ANZ530>537-230500-
MARINE OBSERVATIONS

STATION/POSITION TIME  TEMP    WIND        PRES
                       AIR SEA DIR/SP/G
                 (UTC) (F)     (DEG/KT/KT) (MB)
THOMAS PT LIGHT  0400   78 80  200/ 14/ 15 1018.9F
BALT KEY BRIDGE  0400   77     200/  6/  8 1018.3S
COVE POINT       0400   76     200/  7/  7 1018.8F
LEWISETTA        0400   75 81  220/  3/  3 1018.9R
SOLOMONS ISLAND  0400      81                N/A
PINEY POINT      0400          190/  7/  8   N/A

$$



USA.gov is the U.S. government's official web portal to all federal, state and local government web resources and services.